• In Österreich
  • Länderverzeichnis
  • Für 7 Tage
  • Wassertemperatur
  • Satellitenkarten
  • Wetterkarte
  • News
  • Widgets
  • user-avatar
    Anmelden

    Stündliche Wetter Annaba

    Heute, 18 Juli, Mittwoch

    Zeit Temperatur Niederschläge Wind Luftdruck Luftfeuchtigkeit
    00:00 +26°C° 0 mm 1 m/S 761 mmHg 69%
    01:00 +26°C° 0 mm 1 m/S 760 mmHg 67%
    02:00 +26°C° 0 mm 1 m/S 760 mmHg 65%
    03:00 +26°C° 0 mm 1 m/S 760 mmHg 64%
    04:00 +26°C° 0 mm 1 m/S 760 mmHg 63%
    05:00 +26°C° 0 mm 1 m/S 760 mmHg 60%
    06:00 +27°C° 0 mm 2 m/S 760 mmHg 56%
    07:00 +29°C° 0 mm 2 m/S 760 mmHg 52%
    08:00 +31°C° 0 mm 2 m/S 760 mmHg 46%
    09:00 +34°C° 0 mm 3 m/S 759 mmHg 41%
    10:00 +36°C° 0 mm 3 m/S 759 mmHg 35%
    11:00 +37°C° 0 mm 3 m/S 759 mmHg 33%
    12:00 +40°C° 0 mm 4 m/S 759 mmHg 30%
    13:00 +40°C° 0 mm 5 m/S 759 mmHg 30%
    14:00 +41°C° 0 mm 5 m/S 759 mmHg 29%
    15:00 +41°C° 0 mm 5 m/S 758 mmHg 29%
    16:00 +41°C° 0 mm 5 m/S 758 mmHg 29%
    17:00 +40°C° 0 mm 5 m/S 758 mmHg 31%
    18:00 +38°C° 0 mm 4 m/S 758 mmHg 34%
    19:00 +36°C° 0 mm 4 m/S 757 mmHg 37%
    20:00 +35°C° 0 mm 4 m/S 758 mmHg 40%
    21:00 +34°C° 0 mm 3 m/S 758 mmHg 43%
    22:00 +31°C° 0 mm 3 m/S 758 mmHg 46%
    23:00 +31°C° 0 mm 3 m/S 758 mmHg 45%

    Morgen, 19 Juli, Donnerstag

    Zeit Temperatur Niederschläge Wind Luftdruck Luftfeuchtigkeit
    00:00 +31°C° 0 mm 2 m/S 758 mmHg 45%
    01:00 +31°C° 0 mm 2 m/S 758 mmHg 44%
    02:00 +31°C° 0 mm 2 m/S 758 mmHg 47%
    03:00 +30°C° 0 mm 2 m/S 758 mmHg 50%
    04:00 +29°C° 0 mm 2 m/S 757 mmHg 52%
    05:00 +30°C° 0 mm 2 m/S 758 mmHg 52%
    06:00 +30°C° 0 mm 2 m/S 758 mmHg 52%
    07:00 +31°C° 0 mm 2 m/S 758 mmHg 51%
    08:00 +33°C° 0 mm 3 m/S 758 mmHg 47%
    09:00 +35°C° 0 mm 4 m/S 759 mmHg 43%
    10:00 +37°C° 0 mm 4 m/S 759 mmHg 39%
    11:00 +37°C° 0 mm 4 m/S 759 mmHg 38%
    12:00 +38°C° 0 mm 4 m/S 759 mmHg 37%
    13:00 +40°C° 0 mm 4 m/S 759 mmHg 35%
    14:00 +38°C° 0 mm 4 m/S 759 mmHg 36%
    15:00 +38°C° 0 mm 4 m/S 759 mmHg 36%
    16:00 +38°C° 0 mm 4 m/S 759 mmHg 36%
    17:00 +37°C° 0 mm 3 m/S 759 mmHg 40%
    18:00 +35°C° 0 mm 3 m/S 759 mmHg 44%
    19:00 +34°C° 0 mm 2 m/S 759 mmHg 48%
    20:00 +31°C° 0 mm 2 m/S 760 mmHg 53%
    21:00 +30°C° 0 mm 1 m/S 760 mmHg 58%
    22:00 +29°C° 0 mm 1 m/S 760 mmHg 63%
    23:00 +29°C° 0 mm 1 m/S 760 mmHg 60%

    übermorgen, 20 Juli, Freitag

    Zeit Temperatur Niederschläge Wind Luftdruck Luftfeuchtigkeit
    00:00 +29°C° 0 mm 1 m/S 760 mmHg 58%
    01:00 +29°C° 0 mm 1 m/S 760 mmHg 55%
    02:00 +29°C° 0 mm 1 m/S 759 mmHg 53%
    03:00 +29°C° 0 mm 1 m/S 759 mmHg 51%
    04:00 +29°C° 0 mm 2 m/S 759 mmHg 49%
    05:00 +29°C° 0 mm 2 m/S 759 mmHg 47%
    06:00 +30°C° 0 mm 2 m/S 759 mmHg 44%
    07:00 +31°C° 0 mm 2 m/S 759 mmHg 42%
    08:00 +35°C° 0 mm 2 m/S 759 mmHg 36%
    09:00 +37°C° 0 mm 2 m/S 759 mmHg 31%
    10:00 +40°C° 0 mm 3 m/S 759 mmHg 25%
    11:00 +42°C° 0 mm 3 m/S 759 mmHg 23%
    12:00 +44°C° 0 mm 3 m/S 758 mmHg 20%
    13:00 +45°C° 0 mm 4 m/S 758 mmHg 18%
    14:00 +45°C° 0 mm 4 m/S 758 mmHg 18%
    15:00 +46°C° 0 mm 5 m/S 758 mmHg 19%
    16:00 +46°C° 0 mm 6 m/S 758 mmHg 19%
    17:00 +42°C° 0 mm 5 m/S 758 mmHg 23%
    18:00 +40°C° 0 mm 4 m/S 758 mmHg 27%
    19:00 +37°C° 0 mm 4 m/S 758 mmHg 31%
    20:00 +36°C° 0,2 mm 4 m/S 758 mmHg 35%
    21:00 +35°C° 0,2 mm 4 m/S 759 mmHg 39%
    22:00 +33°C° 0,2 mm 3 m/S 759 mmHg 43%
    23:00 +33°C° 0 mm 3 m/S 759 mmHg 40%

    21 Juli, Samstag

    Zeit Temperatur Niederschläge Wind Luftdruck Luftfeuchtigkeit
    00:00 +34°C° 0 mm 3 m/S 758 mmHg 37%
    01:00 +34°C° 0 mm 3 m/S 757 mmHg 34%
    02:00 +34°C° 0 mm 3 m/S 757 mmHg 33%
    03:00 +34°C° 0 mm 3 m/S 756 mmHg 33%
    04:00 +34°C° 0 mm 3 m/S 756 mmHg 33%
    05:00 +35°C° 0 mm 3 m/S 756 mmHg 31%
    06:00 +36°C° 0 mm 3 m/S 756 mmHg 29%
    07:00 +37°C° 0 mm 4 m/S 756 mmHg 28%
    08:00 +40°C° 0 mm 4 m/S 756 mmHg 26%
    09:00 +41°C° 0 mm 4 m/S 756 mmHg 25%
    10:00 +43°C° 0 mm 4 m/S 756 mmHg 23%
    11:00 +44°C° 0 mm 4 m/S 757 mmHg 24%
    12:00 +45°C° 0 mm 5 m/S 757 mmHg 24%
    13:00 +46°C° 0 mm 5 m/S 757 mmHg 25%
    14:00 +45°C° 0 mm 5 m/S 756 mmHg 28%
    15:00 +42°C° 0 mm 5 m/S 756 mmHg 31%
    16:00 +41°C° 0 mm 5 m/S 756 mmHg 34%
    17:00 +38°C° 0 mm 4 m/S 757 mmHg 38%
    18:00 +37°C° 0 mm 4 m/S 757 mmHg 42%
    19:00 +35°C° 0 mm 3 m/S 757 mmHg 47%
    20:00 +34°C° 0 mm 3 m/S 758 mmHg 51%
    21:00 +33°C° 0 mm 3 m/S 758 mmHg 55%
    22:00 +30°C° 0 mm 3 m/S 758 mmHg 60%
    23:00 +30°C° 0 mm 3 m/S 758 mmHg 60%

    22 Juli, Sonntag

    Zeit Temperatur Niederschläge Wind Luftdruck Luftfeuchtigkeit
    00:00 +30°C° 0 mm 2 m/S 758 mmHg 61%
    01:00 +30°C° 0 mm 2 m/S 758 mmHg 62%
    02:00 +29°C° 0 mm 2 m/S 758 mmHg 65%
    03:00 +29°C° 0 mm 2 m/S 758 mmHg 67%
    04:00 +29°C° 0 mm 3 m/S 758 mmHg 69%
    05:00 +28°C° 0 mm 2 m/S 758 mmHg 70%
    06:00 +28°C° 0 mm 2 m/S 758 mmHg 71%
    07:00 +28°C° 0 mm 2 m/S 758 mmHg 72%
    08:00 +30°C° 0 mm 2 m/S 758 mmHg 64%
    09:00 +33°C° 0 mm 3 m/S 758 mmHg 55%
    10:00 +35°C° 0 mm 3 m/S 758 mmHg 46%
    11:00 +35°C° 0 mm 3 m/S 758 mmHg 46%
    12:00 +35°C° 0 mm 3 m/S 758 mmHg 46%
    13:00 +36°C° 0 mm 3 m/S 758 mmHg 46%
    14:00 +35°C° 0 mm 4 m/S 758 mmHg 48%
    15:00 +34°C° 0 mm 4 m/S 758 mmHg 50%
    16:00 +33°C° 0 mm 4 m/S 758 mmHg 52%
    17:00 +32°C° 0 mm 4 m/S 758 mmHg 54%
    18:00 +30°C° 0 mm 3 m/S 759 mmHg 57%
    19:00 +29°C° 0 mm 3 m/S 759 mmHg 59%
    20:00 +28°C° 0 mm 3 m/S 760 mmHg 65%
    21:00 +27°C° 0 mm 2 m/S 760 mmHg 71%
    22:00 +26°C° 0 mm 2 m/S 760 mmHg 77%
    23:00 +26°C° 0 mm 2 m/S 760 mmHg 80%

    23 Juli, Montag

    Zeit Temperatur Niederschläge Wind Luftdruck Luftfeuchtigkeit
    00:00 +25°C° 0 mm 2 m/S 760 mmHg 83%
    01:00 +25°C° 0 mm 1 m/S 760 mmHg 86%
    02:00 +24°C° 0 mm 2 m/S 759 mmHg 87%
    03:00 +24°C° 0 mm 2 m/S 759 mmHg 88%
    04:00 +24°C° 0 mm 2 m/S 759 mmHg 89%
    05:00 +24°C° 0 mm 2 m/S 759 mmHg 82%
    06:00 +25°C° 0 mm 2 m/S 759 mmHg 76%
    07:00 +26°C° 0 mm 2 m/S 759 mmHg 69%
    08:00 +28°C° 0 mm 3 m/S 759 mmHg 60%
    09:00 +29°C° 0 mm 3 m/S 759 mmHg 52%
    10:00 +31°C° 0 mm 3 m/S 759 mmHg 43%
    11:00 +33°C° 0 mm 4 m/S 759 mmHg 40%
    12:00 +34°C° 0 mm 4 m/S 759 mmHg 38%
    13:00 +35°C° 0 mm 5 m/S 759 mmHg 36%
    14:00 +35°C° 0 mm 5 m/S 758 mmHg 36%
    15:00 +34°C° 0 mm 5 m/S 758 mmHg 37%
    16:00 +34°C° 0 mm 5 m/S 758 mmHg 37%
    17:00 +33°C° 0 mm 4 m/S 758 mmHg 42%
    18:00 +32°C° 0 mm 4 m/S 758 mmHg 46%
    19:00 +30°C° 0 mm 3 m/S 758 mmHg 50%
    20:00 +28°C° 0 mm 3 m/S 759 mmHg 57%
    21:00 +27°C° 0 mm 2 m/S 759 mmHg 64%
    22:00 +26°C° 0 mm 2 m/S 759 mmHg 70%
    23:00 +25°C° 0 mm 2 m/S 759 mmHg 71%
    Mehr zeigen